When you browse on this site, cookies collect data to enhance your experience and personalize the content and advertising you see.
Visit our Privacy Policy to learn more. By continuing to use the site, you agree to this use of cookies and data.
  • In Sweden
  • List of Countries
  • For 7 days
  • Water Temperature
  • Weather Map
  • Weather Widgets
  • user-avatar
    Login

    Hourly Weather Thousand Oaks

    Today, 3 June, Wednesday

    Time Temperature Precipitation Wind Pressure Humidity
    00:00 +21°C° 0 mm 1 mps 721 mmHg 57%
    01:00 +21°C° 0 mm 1 mps 720 mmHg 56%
    02:00 +20°C° 0 mm 1 mps 720 mmHg 60%
    03:00 +18°C° 0 mm 2 mps 720 mmHg 63%
    04:00 +18°C° 0 mm 2 mps 719 mmHg 66%
    05:00 +19°C° 0 mm 2 mps 720 mmHg 59%
    06:00 +22°C° 0 mm 1 mps 720 mmHg 52%
    07:00 +24°C° 0 mm 1 mps 720 mmHg 45%
    08:00 +26°C° 0 mm 1 mps 721 mmHg 39%
    09:00 +29°C° 0 mm 2 mps 721 mmHg 32%
    10:00 +31°C° 0 mm 2 mps 721 mmHg 26%
    11:00 +31°C° 0 mm 3 mps 721 mmHg 26%
    12:00 +33°C° 0 mm 3 mps 720 mmHg 26%
    13:00 +34°C° 0 mm 4 mps 720 mmHg 25%
    14:00 +33°C° 0 mm 4 mps 720 mmHg 25%
    15:00 +33°C° 0 mm 5 mps 719 mmHg 25%
    16:00 +32°C° 0 mm 5 mps 719 mmHg 25%
    17:00 +29°C° 0 mm 4 mps 718 mmHg 30%
    18:00 +27°C° 0 mm 3 mps 718 mmHg 35%
    19:00 +25°C° 0 mm 3 mps 718 mmHg 40%
    20:00 +24°C° 0 mm 2 mps 718 mmHg 41%
    21:00 +23°C° 0 mm 1 mps 718 mmHg 43%
    22:00 +23°C° 0 mm 1 mps 718 mmHg 44%
    23:00 +22°C° 0 mm 1 mps 718 mmHg 47%

    Tomorrow, 4 June, Thursday

    Time Temperature Precipitation Wind Pressure Humidity
    00:00 +22°C° 0 mm 1 mps 718 mmHg 50%
    01:00 +21°C° 0 mm 1 mps 717 mmHg 53%
    02:00 +20°C° 0 mm 1 mps 717 mmHg 56%
    03:00 +20°C° 0 mm 1 mps 717 mmHg 58%
    04:00 +20°C° 0 mm 1 mps 717 mmHg 61%
    05:00 +21°C° 0 mm 1 mps 717 mmHg 56%
    06:00 +23°C° 0 mm 1 mps 717 mmHg 50%
    07:00 +25°C° 0 mm 2 mps 717 mmHg 45%
    08:00 +26°C° 0 mm 2 mps 717 mmHg 41%
    09:00 +28°C° 0 mm 3 mps 718 mmHg 37%
    10:00 +29°C° 0 mm 3 mps 718 mmHg 34%
    11:00 +29°C° 0 mm 3 mps 717 mmHg 33%
    12:00 +30°C° 0 mm 3 mps 717 mmHg 33%
    13:00 +30°C° 0 mm 3 mps 717 mmHg 33%
    14:00 +29°C° 0 mm 3 mps 716 mmHg 34%
    15:00 +29°C° 0 mm 3 mps 716 mmHg 35%
    16:00 +28°C° 0 mm 3 mps 716 mmHg 36%
    17:00 +26°C° 0 mm 3 mps 716 mmHg 43%
    18:00 +23°C° 0 mm 2 mps 715 mmHg 50%
    19:00 +20°C° 0 mm 2 mps 715 mmHg 57%
    20:00 +20°C° 0 mm 1 mps 715 mmHg 61%
    21:00 +19°C° 0 mm 1 mps 716 mmHg 65%
    22:00 +18°C° 0 mm 1 mps 716 mmHg 69%
    23:00 +18°C° 0 mm 1 mps 716 mmHg 71%

    Day after tomorrow, 5 June, Friday

    Time Temperature Precipitation Wind Pressure Humidity
    00:00 +16°C° 0 mm 1 mps 715 mmHg 73%
    01:00 +15°C° 0 mm 0 mps 715 mmHg 75%
    02:00 +16°C° 0 mm 1 mps 715 mmHg 75%
    03:00 +15°C° 0 mm 1 mps 715 mmHg 76%
    04:00 +15°C° 0 mm 1 mps 714 mmHg 76%
    05:00 +16°C° 0 mm 1 mps 715 mmHg 73%
    06:00 +18°C° 0 mm 1 mps 715 mmHg 69%
    07:00 +18°C° 0 mm 2 mps 715 mmHg 66%
    08:00 +19°C° 0 mm 2 mps 716 mmHg 61%
    09:00 +21°C° 0 mm 3 mps 716 mmHg 56%
    10:00 +22°C° 0 mm 3 mps 716 mmHg 52%
    11:00 +22°C° 0 mm 4 mps 716 mmHg 52%
    12:00 +22°C° 0 mm 4 mps 716 mmHg 52%
    13:00 +22°C° 0 mm 5 mps 716 mmHg 53%
    14:00 +22°C° 0.1 mm 4 mps 716 mmHg 55%
    15:00 +21°C° 0.1 mm 4 mps 715 mmHg 57%
    16:00 +20°C° 0.1 mm 4 mps 715 mmHg 59%
    17:00 +19°C° 0 mm 3 mps 715 mmHg 64%
    18:00 +18°C° 0 mm 2 mps 716 mmHg 70%
    19:00 +16°C° 0 mm 2 mps 716 mmHg 75%
    20:00 +16°C° 0 mm 2 mps 716 mmHg 78%
    21:00 +15°C° 0 mm 2 mps 717 mmHg 81%
    22:00 +14°C° 0 mm 1 mps 718 mmHg 84%
    23:00 +14°C° 0 mm 1 mps 718 mmHg 83%

    6 June, Saturday

    Time Temperature Precipitation Wind Pressure Humidity
    00:00 +14°C° 0 mm 1 mps 718 mmHg 83%
    01:00 +14°C° 0 mm 1 mps 718 mmHg 82%
    02:00 +14°C° 0 mm 1 mps 718 mmHg 81%
    03:00 +14°C° 0 mm 1 mps 718 mmHg 80%
    04:00 +14°C° 0 mm 1 mps 718 mmHg 79%
    05:00 +15°C° 0 mm 1 mps 718 mmHg 77%
    06:00 +16°C° 0 mm 1 mps 718 mmHg 74%
    07:00 +16°C° 0 mm 2 mps 719 mmHg 71%
    08:00 +18°C° 0 mm 2 mps 719 mmHg 65%
    09:00 +19°C° 0 mm 3 mps 719 mmHg 59%
    10:00 +20°C° 0 mm 4 mps 719 mmHg 53%
    11:00 +21°C° 0 mm 4 mps 719 mmHg 52%
    12:00 +21°C° 0 mm 5 mps 719 mmHg 51%
    13:00 +22°C° 0 mm 6 mps 718 mmHg 49%
    14:00 +21°C° 0 mm 6 mps 718 mmHg 49%
    15:00 +21°C° 0 mm 6 mps 718 mmHg 49%
    16:00 +21°C° 0 mm 6 mps 718 mmHg 49%
    17:00 +20°C° 0 mm 5 mps 717 mmHg 53%
    18:00 +18°C° 0 mm 4 mps 717 mmHg 56%
    19:00 +17°C° 0 mm 4 mps 717 mmHg 60%
    20:00 +16°C° 0 mm 3 mps 717 mmHg 62%
    21:00 +16°C° 0 mm 3 mps 718 mmHg 64%
    22:00 +14°C° 0 mm 3 mps 718 mmHg 65%
    23:00 +15°C° 0 mm 2 mps 718 mmHg 65%

    7 June, Sunday

    Time Temperature Precipitation Wind Pressure Humidity
    00:00 +15°C° 0 mm 2 mps 717 mmHg 64%
    01:00 +14°C° 0 mm 2 mps 717 mmHg 63%
    02:00 +14°C° 0 mm 2 mps 717 mmHg 62%
    03:00 +13°C° 0 mm 2 mps 717 mmHg 61%
    04:00 +12°C° 0 mm 3 mps 717 mmHg 60%
    05:00 +13°C° 0 mm 3 mps 718 mmHg 55%
    06:00 +13°C° 0 mm 3 mps 718 mmHg 50%
    07:00 +14°C° 0 mm 3 mps 718 mmHg 45%
    08:00 +17°C° 0 mm 3 mps 719 mmHg 41%
    09:00 +18°C° 0 mm 3 mps 719 mmHg 36%
    10:00 +20°C° 0 mm 3 mps 719 mmHg 31%
    11:00 +21°C° 0 mm 3 mps 719 mmHg 29%
    12:00 +22°C° 0 mm 4 mps 718 mmHg 26%
    13:00 +23°C° 0 mm 5 mps 718 mmHg 24%
    14:00 +23°C° 0 mm 5 mps 718 mmHg 24%
    15:00 +23°C° 0 mm 5 mps 717 mmHg 24%
    16:00 +23°C° 0 mm 4 mps 717 mmHg 24%
    17:00 +22°C° 0 mm 4 mps 717 mmHg 26%
    18:00 +20°C° 0 mm 4 mps 717 mmHg 28%
    19:00 +19°C° 0 mm 4 mps 717 mmHg 29%
    20:00 +18°C° 0 mm 4 mps 717 mmHg 29%
    21:00 +17°C° 0 mm 4 mps 717 mmHg 29%
    22:00 +14°C° 0 mm 3 mps 718 mmHg 28%
    23:00 +14°C° 0 mm 3 mps 717 mmHg 32%

    8 June, Monday

    Time Temperature Precipitation Wind Pressure Humidity
    00:00 +13°C° 0 mm 3 mps 717 mmHg 35%
    01:00 +13°C° 0 mm 3 mps 717 mmHg 38%
    02:00 +12°C° 0 mm 3 mps 717 mmHg 43%
    03:00 +12°C° 0 mm 3 mps 717 mmHg 47%
    04:00 +11°C° 0 mm 3 mps 717 mmHg 51%
    05:00 +13°C° 0 mm 3 mps 718 mmHg 46%
    06:00 +14°C° 0 mm 3 mps 718 mmHg 41%
    07:00 +17°C° 0 mm 3 mps 718 mmHg 36%
    08:00 +19°C° 0 mm 3 mps 719 mmHg 31%
    09:00 +21°C° 0 mm 3 mps 719 mmHg 25%
    10:00 +25°C° 0 mm 3 mps 719 mmHg 20%
    11:00 +25°C° 0 mm 4 mps 719 mmHg 20%
    12:00 +26°C° 0 mm 4 mps 719 mmHg 20%
    13:00 +27°C° 0 mm 4 mps 718 mmHg 20%
    14:00 +26°C° 0 mm 4 mps 718 mmHg 21%
    15:00 +26°C° 0 mm 4 mps 718 mmHg 22%
    16:00 +25°C° 0 mm 4 mps 717 mmHg 24%
    17:00 +24°C° 0 mm 3 mps 717 mmHg 26%
    18:00 +22°C° 0 mm 3 mps 717 mmHg 28%
    19:00 +20°C° 0 mm 3 mps 717 mmHg 30%
    20:00 +19°C° 0 mm 3 mps 718 mmHg 30%
    21:00 +18°C° 0 mm 3 mps 718 mmHg 29%
    22:00 +17°C° 0 mm 3 mps 718 mmHg 29%
    23:00 +17°C° 0 mm 3 mps 718 mmHg 30%
    Show more